Location: Cardiff
(53.7833°N, 113.6000°W)
Time: 17:13:34
(UTC+00:00)

NOAA 15 - Pass Details

Date: 11 December 2023
Orbit: 796 x 810 km, 98.6° (Epoch: 21 February)

Event Time Altitude Azimuth Distance (km) Brightness Sun altitude
Rises 01:45:04 0° 152° (SSE) 3,317 7.6 -20.9°
Reaches altitude 10° 01:47:25 10° 150° (SSE) 2,388 6.9 -21.2°
Maximum altitude 01:52:38 66° 69° (ENE) 883 4.5 -22.0°
Drops below altitude 10° 01:57:53 10° 349° (NNW) 2,396 7.1 -22.8°
Sets 02:00:14 0° 346° (NNW) 3,329 7.9 -23.1°
